TimeEST,TemperatureF,Dew PointF,Humidity,Sea Level PressureIn,VisibilityMPH,Wind Direction,Wind SpeedMPH,Gust SpeedMPH,PrecipitationIn,Events,Conditions,WindDirDegrees,DateUTC
12:53 AM,19.0,12.9,77,30.17,9.0,SSE,6.9,-,N/A,,Overcast,150,2010-01-07 05:53:00
1:53 AM,19.0,12.9,77,30.15,9.0,SSE,6.9,-,N/A,,Overcast,150,2010-01-07 06:53:00
2:53 AM,19.9,12.9,74,30.13,8.0,SE,6.9,-,N/A,,Overcast,140,2010-01-07 07:53:00
3:12 AM,19.4,14.0,80,30.09,2.5,SSE,5.8,-,0.00,Snow,Light Snow,160,2010-01-07 08:12:00
3:24 AM,19.4,15.8,86,30.08,1.8,SE,6.9,-,0.00,Snow,Light Snow,140,2010-01-07 08:24:00
3:44 AM,19.4,15.8,86,30.08,1.0,SSE,4.6,-,0.00,Snow,Light Snow,150,2010-01-07 08:44:00
3:53 AM,19.0,15.1,85,30.12,1.0,SE,5.8,-,0.00,Snow,Light Snow,140,2010-01-07 08:53:00
4:00 AM,19.4,15.8,86,30.08,0.8,SSE,5.8,-,0.00,Snow,Light Snow,150,2010-01-07 09:00:00
4:14 AM,19.4,15.8,86,30.07,1.0,SE,5.8,-,0.01,Snow,Light Snow,140,2010-01-07 09:14:00
4:43 AM,19.4,15.8,86,30.06,1.2,SSE,3.5,-,0.02,Snow,Light Snow,150,2010-01-07 09:43:00
4:53 AM,19.0,16.0,88,30.09,1.2,SSE,5.8,-,0.02,Snow,Light Snow,160,2010-01-07 09:53:00
5:29 AM,19.4,15.8,86,30.04,1.2,SE,5.8,-,0.01,Snow,Light Snow,140,2010-01-07 10:29:00
5:48 AM,19.4,15.8,86,30.03,1.2,SSE,5.8,-,0.01,Snow,Light Snow,160,2010-01-07 10:48:00
5:49 AM,19.0,16.0,88,30.07,1.2,SSE,5.8,-,0.01,Snow,Light Snow,160,2010-01-07 10:49:00
6:23 AM,19.4,17.6,93,30.03,0.8,SSE,8.1,-,0.01,Snow,Light Snow,150,2010-01-07 11:23:00
6:53 AM,19.9,17.1,89,30.04,0.8,SSE,8.1,-,0.03,Snow,Light Snow,150,2010-01-07 11:53:00
7:30 AM,19.4,17.6,93,29.99,1.0,SE,10.4,-,0.02,Snow,Light Snow,140,2010-01-07 12:30:00
7:42 AM,19.4,17.6,93,29.98,1.5,SSE,8.1,-,0.02,Snow,Light Snow,160,2010-01-07 12:42:00
7:50 AM,19.4,17.6,93,29.98,2.0,SE,9.2,-,0.02,Snow,Light Snow,140,2010-01-07 12:50:00
7:53 AM,19.9,17.1,89,30.02,2.0,South,8.1,-,0.02,Snow,Light Snow,180,2010-01-07 12:53:00
8:00 AM,19.4,17.6,93,29.97,2.0,SE,9.2,-,0.00,Snow,Light Snow,140,2010-01-07 13:00:00
8:15 AM,19.4,17.6,93,29.97,1.0,SSE,9.2,-,0.01,Snow,Light Snow,150,2010-01-07 13:15:00
8:39 AM,19.4,17.6,93,29.97,0.5,SSE,5.8,-,0.02,Fog-Snow,Snow,160,2010-01-07 13:39:00
8:47 AM,19.4,17.6,93,29.96,1.0,SSE,9.2,-,0.02,Snow,Light Snow,150,2010-01-07 13:47:00
8:48 AM,19.9,18.0,92,30.00,1.0,SSE,9.2,-,0.02,Snow,Light Snow,150,2010-01-07 13:48:00
9:03 AM,21.2,17.6,86,29.96,2.0,South,5.8,-,0.00,Snow,Light Snow,170,2010-01-07 14:03:00
9:32 AM,21.2,19.4,93,29.96,2.0,South,5.8,-,0.01,Snow,Light Snow,170,2010-01-07 14:32:00
9:36 AM,21.2,19.4,93,29.97,0.5,South,5.8,-,0.02,Fog-Snow,Snow,180,2010-01-07 14:36:00
9:53 AM,21.0,19.0,92,29.99,0.5,South,5.8,-,0.03,Fog-Snow,Light Snow,170,2010-01-07 14:53:00
9:56 AM,21.2,19.4,93,29.96,1.0,South,5.8,-,0.00,Snow,Light Snow,170,2010-01-07 14:56:00
10:12 AM,21.2,19.4,93,29.94,2.0,SSE,5.8,-,0.00,Snow,Light Snow,160,2010-01-07 15:12:00
10:18 AM,21.2,19.4,93,29.95,2.0,South,4.6,-,0.00,Snow,Light Snow,170,2010-01-07 15:18:00
10:26 AM,21.2,19.4,93,29.95,1.8,South,4.6,-,0.00,Snow,Light Snow,170,2010-01-07 15:26:00
10:39 AM,23.0,19.4,86,29.95,0.8,South,4.6,-,0.01,Snow,Light Snow,170,2010-01-07 15:39:00
10:44 AM,23.0,19.4,86,29.94,1.0,South,4.6,-,0.01,Snow,Light Snow,170,2010-01-07 15:44:00
10:53 AM,23.0,19.9,88,29.97,1.0,South,6.9,-,0.01,Snow,Light Snow,170,2010-01-07 15:53:00
11:30 AM,24.8,21.2,86,29.93,0.5,SSW,8.1,-,0.01,Fog-Snow,Snow,210,2010-01-07 16:30:00
11:41 AM,24.8,21.2,86,29.93,0.8,WSW,8.1,-,0.02,Snow,Light Snow,240,2010-01-07 16:41:00
11:53 AM,25.0,21.0,85,29.96,0.5,WSW,9.2,-,0.02,Fog-Snow,Snow,240,2010-01-07 16:53:00
12:32 PM,24.8,19.4,80,29.91,0.2,West,19.6,32.2,0.02,Fog-Snow,Snow,260,2010-01-07 17:32:00
12:50 PM,19.4,15.8,86,29.91,0.5,West,18.4,27.6,0.02,Snow,Snow,280,2010-01-07 17:50:00
12:53 PM,19.9,15.1,81,29.95,0.5,West,16.1,27.6,0.02,Snow,Snow,280,2010-01-07 17:53:00
12:59 PM,19.4,15.8,86,29.91,1.2,West,11.5,24.2,0.00,Snow,Light Snow,270,2010-01-07 17:59:00
1:06 PM,19.4,14.0,80,29.91,3.0,West,11.5,-,0.00,Snow,Light Snow,270,2010-01-07 18:06:00
1:19 PM,21.2,14.0,74,29.90,2.0,West,17.3,21.9,0.00,Snow,Light Snow,280,2010-01-07 18:19:00
1:22 PM,21.2,14.0,74,29.90,3.0,West,16.1,21.9,0.00,Snow,Light Snow,280,2010-01-07 18:22:00
1:35 PM,19.4,14.0,80,29.91,5.0,WNW,13.8,-,0.00,Snow,Light Snow,290,2010-01-07 18:35:00
1:53 PM,19.9,12.9,74,29.94,3.0,WNW,11.5,21.9,0.00,Snow,Light Snow,290,2010-01-07 18:53:00
1:57 PM,19.4,12.2,74,29.90,1.8,WNW,13.8,21.9,0.00,Snow,Light Snow,290,2010-01-07 18:57:00
2:29 PM,19.4,12.2,74,29.90,2.5,West,15.0,21.9,0.00,Snow,Light Snow,270,2010-01-07 19:29:00
2:53 PM,19.0,10.9,71,29.94,2.5,West,13.8,21.9,0.00,Snow,Light Snow,280,2010-01-07 19:53:00
3:03 PM,19.4,12.2,74,29.91,1.2,West,12.7,20.7,0.00,Snow,Light Snow,280,2010-01-07 20:03:00
3:12 PM,17.6,12.2,79,29.91,0.5,WNW,17.3,23.0,0.00,Snow,Snow,290,2010-01-07 20:12:00
3:26 PM,17.6,10.4,73,29.92,1.5,West,8.1,21.9,0.00,Snow,Light Snow,280,2010-01-07 20:26:00
3:50 PM,17.6,12.2,79,29.93,0.5,WNW,10.4,-,0.00,Snow,Snow,290,2010-01-07 20:50:00
3:53 PM,16.0,12.0,84,29.97,0.5,WNW,12.7,20.7,0.00,Fog-Snow,Snow,290,2010-01-07 20:53:00
4:00 PM,15.8,10.4,79,29.94,0.5,WNW,10.4,21.9,0.00,Snow,Snow,300,2010-01-07 21:00:00
4:07 PM,15.8,10.4,79,29.94,0.5,WNW,12.7,23.0,0.00,Snow,Snow,290,2010-01-07 21:07:00
4:14 PM,15.8,8.6,73,29.94,1.0,WNW,10.4,19.6,0.00,Snow,Light Snow,290,2010-01-07 21:14:00
4:35 PM,15.8,10.4,79,29.96,0.5,West,9.2,-,0.00,Snow,Snow,270,2010-01-07 21:35:00
4:53 PM,14.0,7.0,74,30.00,1.2,WNW,11.5,24.2,0.00,Snow,Light Snow,290,2010-01-07 21:53:00
5:00 PM,14.0,6.8,73,29.96,2.0,West,11.5,20.7,0.00,Snow,Light Snow,280,2010-01-07 22:00:00
5:53 PM,12.9,9.0,84,30.03,2.0,West,12.7,18.4,0.00,Snow,Light Snow,270,2010-01-07 22:53:00
6:00 PM,12.2,8.6,85,29.99,1.8,WNW,12.7,-,0.00,Snow,Light Snow,290,2010-01-07 23:00:00
6:07 PM,12.2,8.6,85,29.99,2.0,West,11.5,-,0.00,Snow,Light Snow,270,2010-01-07 23:07:00
6:16 PM,12.2,8.6,85,29.99,1.2,West,9.2,19.6,0.00,Snow,Light Snow,260,2010-01-07 23:16:00
6:19 PM,12.2,8.6,85,29.99,0.8,West,9.2,-,0.00,Snow,Light Snow,260,2010-01-07 23:19:00
6:42 PM,12.2,8.6,85,30.00,1.0,West,13.8,20.7,0.00,Snow,Light Snow,260,2010-01-07 23:42:00
6:53 PM,12.0,7.0,80,30.04,1.2,West,13.8,21.9,0.00,Snow,Light Snow,260,2010-01-07 23:53:00
7:13 PM,10.4,6.8,85,30.00,2.0,West,11.5,-,0.00,Snow,Light Snow,270,2010-01-08 00:13:00
7:24 PM,10.4,6.8,85,30.01,3.0,West,9.2,-,0.00,Snow,Light Snow,260,2010-01-08 00:24:00
7:53 PM,10.9,5.0,77,30.06,4.0,West,12.7,18.4,0.00,Snow,Light Snow,260,2010-01-08 00:53:00
8:48 PM,10.4,5.0,79,30.02,2.5,WSW,9.2,-,0.00,Snow,Light Snow,250,2010-01-08 01:48:00
8:53 PM,10.0,5.0,80,30.06,2.5,WSW,9.2,-,0.00,Snow,Light Snow,250,2010-01-08 01:53:00
9:49 PM,10.4,6.8,85,30.03,3.0,WSW,10.4,17.3,0.00,Snow,Light Snow,250,2010-01-08 02:49:00
9:53 PM,10.0,6.1,84,30.07,3.0,WSW,9.2,-,0.00,Snow,Light Snow,240,2010-01-08 02:53:00
10:07 PM,10.4,6.8,85,30.03,1.8,WSW,10.4,-,0.00,Snow,Light Snow,250,2010-01-08 03:07:00
10:15 PM,10.4,6.8,85,30.02,0.8,WSW,10.4,-,0.00,Snow,Light Snow,250,2010-01-08 03:15:00
10:28 PM,10.4,6.8,85,30.02,1.0,West,11.5,18.4,0.00,Snow,Light Snow,260,2010-01-08 03:28:00
10:53 PM,10.9,7.0,84,30.06,1.5,West,9.2,-,0.00,Snow,Light Snow,260,2010-01-08 03:53:00
11:00 PM,10.4,6.8,85,30.03,1.5,West,11.5,-,0.00,Snow,Light Snow,260,2010-01-08 04:00:00
11:09 PM,10.4,6.8,85,30.03,1.8,WSW,10.4,-,0.00,Snow,Light Snow,250,2010-01-08 04:09:00
11:21 PM,10.4,6.8,85,30.03,2.0,WSW,6.9,-,0.00,Snow,Light Snow,250,2010-01-08 04:21:00
11:41 PM,10.4,6.8,85,30.03,1.8,West,10.4,-,0.00,Snow,Light Snow,260,2010-01-08 04:41:00
11:49 PM,10.4,6.8,85,30.03,2.0,West,9.2,-,0.00,Snow,Light Snow,260,2010-01-08 04:49:00
11:53 PM,10.9,7.0,84,30.07,2.5,WSW,10.4,-,0.00,Snow,Light Snow,250,2010-01-08 04:53:00